sat.trackr.live / text

‹ back to catalog

STARLINK-33657

NORAD 63370 · 2025-063H

PAYLOAD ACTIVE UNKNOWN

§ Identity

Operator
Country
US
Launch date
2025-03-26
Launch site
AFWTR
Launch vehicle
Mass (kg)
RCS (m²)

Purposes: comms

External: N2YO · Heavens-Above · Gunter

§ Orbital elements

Epoch: 2026-09-20T14:32:39.860160Z

Period
93.85 min
Inclination
53.1597°
Eccentricity
0.0001235
Mean motion
15.34396405 rev/d
Perigee alt
461.9 km
Apogee alt
463.6 km
Semi-major
6,840.9 km
B*
2.6890e-4
RAAN
221.3013°
Arg perigee
98.5048°
Mean anomaly
261.6095°
Rev number
8,463

§ Raw data

STARLINK-336571 63370U 25063H   26263.60601690  .00008719  00000+0  26890-3 0  99942 63370  53.1597 221.3013 0001235  98.5048 261.6095 15.34396405 84638

JSON: /api/v1/satellites/63370 · /tle

For live sub-satellite position, see the globe view (requires WebGL).

§ Visibility from observer

Set your observer location to see the next 7 days of passes ≥ 10°. The values pass through the URL so the page stays shareable.

No JS? Fill the form by hand. The geolocation button needs JavaScript.